{"data":{"norad_id":87204,"epoch":"2026-09-17T01:22:08.211072Z","epoch_age_seconds":311841,"freshness":"STALE","line1":"1 87204U          26260.05703948  .00001369  00000+0  53709-3 0  9998","line2":"2 87204  98.5117 120.1880 0043483 224.9144 134.8518 14.30442252665219","mean_motion":14.30442252,"eccentricity":0.0043483,"inclination_deg":98.5117,"raan_deg":120.188,"arg_perigee_deg":224.9144,"mean_anomaly_deg":134.8518,"bstar":0.00053709,"rev_number":66521,"period_min":100.66816734382,"perigee_km":759.08262734485,"apogee_km":821.42324727365,"semimajor_km":7168.3899373092,"source":"CELESTRAK","updated_at":"2026-09-20T09:00:32.451407Z"}}